星链-5669 (STARLINK-5669 )

导读

STARLINK-5669是美国SpaceX公司星链(Starlink)星座的一颗低轨互联网卫星,于2023年2月2日发射升空。星链计划旨在构建全球覆盖的巨型低轨卫星互联网星座,为全球提供高速低延迟宽带服务。该卫星属于星链组网卫星,运行在近地轨道,通过星间链路与地面系统配合,服务全球用户,截至2026年,星链已实现全球超150个国家覆盖,拥有超千万活跃用户。

Basic Information
目录编号:
55459
目录名称:
STARLINK-5669
国际标识:
2023-015L
轨道中心:
EARTH
卫星名称:
星链-5669
卫星全名:
星链-5669 (STARLINK-5669 )
卫星状态:
在轨 (已飞行1229 天)
发射日期:
2023-02-02 UTC
国别 :
美国 (US)
星等 :
--
Orbit Information
数据来源 国际轨道数据 AOE轨道数据
星历时间 2026-06-14T13:09:24+0800
1天前
查看轨道信息
2026-06-14T01:00:00+0800
1天前
查看轨道信息
半长轴 6861.193km 6861.185km
偏心率 0.0002253 0.0001531
轨道倾角 43.019° 43.001°
近地点辐角 277.814° 261.942°
升交点赤经 143.666° 146.521°
平近点角 82.246° 189.316°
近地点 481.51km 481.997km
远地点 484.602km 484.099km
周期 94.267分钟 94.267分钟
每日圈数 15.275779 15.275806
Detailed Information
固有亮度:
5
最大亮度:
2.5
卫星平台:
Starlink v1.5
覆盖范围:
全球
运营商:
太空探索技术公司
运营商所在国:
美国
制造商(研发单位):
太空探索技术公司
制造商所在国:
美国
使用方式:
暂无
Satellite Introduction
星链(Starlink)计划是由太空探索技术公司(SpaceX)提出的一个巨型低轨卫星互联网星座项目,计划在2019年至2024年间在太空搭建由约1.2万颗卫星组成的“星链”网络,其中1584颗将部署在地球上空550千米处的近地轨道,并从2020年开始工作。该卫星仍在工作。
2D Orbit Map
3D Orbit Map
Orbit Altitude Analysis Chart
Orbit Inclination Analysis Chart
Orbit Comprehensive Analysis Chart
View Comprehensive Chart